Regional Weather Roundup
Issued by NWS

Home | Current Version | Previous Version | Text Only | Print | Product List | Glossary On
Versions: 1 2 3 4 5 6 7 8 9 10 11 12 13 14 15 16 17 18 19 20 21 22 23 24 25 26 27 28 29 30 31 32 33 34 35 36 37 38 39 40 41 42 43 44 45 46 47 48 49 50
000
ASUS43 KDTX 221310
RWRMI
MICHIGAN HOURLY REGIONAL WEATHER ROUNDUP
NATIONAL WEATHER SERVICE DETROIT/PONTIAC MI
800 AM EST MON JAN 22 2018

NOTE: "FAIR" INDICATES FEW OR NO CLOUDS BELOW 12,000 FEET WITH NO
SIGNIFICANT WEATHER AND/OR OBSTRUCTION TO VISIBILITY.

MIZ047>049-052>055-059>063-066>070-074>076-081>083-221400-
SOUTHEAST LOWER MICHIGAN

CITY           SKY/WX    TMP DP  RH WIND       PRES   REMARKS
ADRIAN         LGT RAIN  40  40 100 SE6       29.82F VSB 1/2
ALMA           LGT RAIN  35  35 100 NE10      29.86S WCI  28
ANN ARBOR      FOG       40  40 100 NE5       29.84F VSB 3/4
BAD AXE        CLOUDY    34  34 100 NE8       29.92F FOG     WCI  27
CARO           LGT RAIN  36  35  99 E6        29.88F WCI  31
DETROIT CITY   FOG       37  37 100 E6        29.87F VSB 3/4 WCI  32
DETROIT        FOG       40  40 100 NE5       29.86F VSB 1/8
FLINT          RAIN      36  35  96 E10       29.84F FOG     WCI  28
GROSSE ILE     CLOUDY    46  46  98 E6        29.85F FOG
HILLSDALE      FOG       43  43 100 SE9       29.78F VSB 3/4
HOWELL         LGT RAIN  39  39 100 E6        29.83S WCI  35

CITY           SKY/WX    TMP DP  RH WIND       PRES   REMARKS
JACKSON        FOG       41  41 100 E8        29.79F VSB 1/2
LAMBERTVILLE   LGT RAIN  45  44  97 SE3       29.84F
LANSING        LGT RAIN  39  39 100 E8        29.81F FOG     WCI  33
LAPEER         DRIZZLE   36  36 100 SE5       29.88F WCI  32
MASON          CLOUDY    41  39  93 E9        29.79F
MONROE         FOG       42  40  93 SE5       29.84F VSB 1/2
MT. CLEMENS    LGT RAIN  36  33  89 E6        29.88  FOG     WCI  32
PONTIAC        CLOUDY    37  37 100 E7        29.84F WCI  32
PORT HOPE        N/A     34  33  96 E12       29.93F WCI  25
PORT HURON     LGT RAIN  36  36 100 CALM      29.90F
TRI CITIES     LGT RAIN  35  35 100 NE14      29.88F FOG     WCI  26
MIDLAND        MIX PCPN  35  35  99 NE14G20   29.88F WCI  26
TROY           LGT RAIN  38  37  98 E3        29.88F
SAGINAW HB     LGT RAIN  34  34 100 NE10      29.87F WCI  26
$$
MIZ043>046-050>051-056>058-064>065-071>073-077>080-221400-
SOUTHWEST LOWER MICHIGAN

CITY           SKY/WX    TMP DP  RH WIND       PRES   REMARKS
BATTLE CREEK   FOG       44  43  96 E6        29.75F VSB 1/2
BENTON HARBOR  TSTM      49  46  90 SE13      29.67F FOG
BIG RAPIDS     LGT SNOW  35  33  93 E15G21    29.84R WCI  26
COLDWATER      CLOUDY    47  47 100 SE10G17   29.76F
FREMONT        LGT RAIN  37  35  92 E9        29.79R WCI  30
HOLLAND        RAIN      39  38  96 E10       29.74F FOG     WCI  32
GRAND RAPIDS   RAIN      37  36  96 E14       29.77F FOG     WCI  28
IONIA          LGT RAIN  36  36 100 NE10      29.79F WCI  29
KALAMAZOO      MOCLDY    47  45  93 SE7       29.74F FOG
LUDINGTON      CLOUDY    38  37  98 E14G21    29.79S FOG     WCI  30
MARSHALL       LGT RAIN  43  43  99 E6        29.75F
MOUNT PLEASANT CLOUDY    36  35  96 NE12      29.86F FOG     WCI  28
MUSKEGON       RAIN      39  36  89 E14       29.76F FOG     WCI  31
SOUTH HAVEN    DRIZZLE   46  46  97 E7        29.69F
$$
MIZ016>042-221400-
NORTHERN LOWER MICHIGAN

CITY           SKY/WX    TMP DP  RH WIND       PRES   REMARKS
ALPENA         CLOUDY    33  32  96 NE14G22   29.99F WCI  23
BEAVER ISLAND  FOG       33  33  99 E14G24    29.96S VSB 1   WCI  24
BELLAIRE       CLOUDY    36  34  92 E9        29.92S WCI  29
CADILLAC       CLOUDY    34  33  99 E17G23    29.83F FOG     WCI  23
CHARLEVOIX     CLOUDY    35  35 100 E12G22    29.96S FOG     WCI  26
FRANKFORT      CLOUDY    37  37  97 E7        29.84F FOG     WCI  32
GAYLORD        FOG       32  32 100 E7        29.91F VSB 1/2 WCI  26
GRAYLING       CLOUDY    33  32  96 E15G21    29.92S FOG     WCI  23
HARBOR SPRINGS CLOUDY    33  32  98 E18G25    29.95S FOG     WCI  22
HOUGHTON LAKE  LGT RAIN  34  33  96 E15       29.90S FOG     WCI  24
MANISTEE       CLOUDY    38  36  92 E15       29.80F WCI  29
OSCODA         LGT SNOW  34  33  98 NE13G18   29.97S WCI  25
PELLSTON       CLOUDY    33  32  96 E17G26    29.98S FOG     WCI  22
ROGERS CITY    CLOUDY    31  30  96 E14G23    30.02F WCI  21
TRAVERSE CITY  LGT RAIN  38  33  82 E10       29.88F WCI  31
$$
MIZ007>008-015-221400-
EASTERN UPPER MICHIGAN

CITY           SKY/WX    TMP DP  RH WIND       PRES   REMARKS
KINROSS        CLOUDY    28  23  81 E15       30.02F WCI  16
MACKINAC ISLAN CLOUDY    30  27  89 E17G23    30.00F WCI  18
NEWBERRY       CLOUDY    28  28  97 NE8       30.00F WCI  20
S. S. MARIE    CLOUDY    28  19  69 E10       30.04F WCI  19
MUNISING         N/A     32  31  96 NE9       30.00F WCI  24
$$
MIZ004>006-011>014-085-221400-
CENTRAL UPPER MICHIGAN

CITY           SKY/WX    TMP DP  RH WIND       PRES   REMARKS
MANISTIQUE     CLOUDY    32  32 100 E9G17     29.97S FOG     WCI  24
ESCANABA       CLOUDY    34  31  88 NE9G17    29.95F WCI  27
MENOMINEE      MIX PCPN  34  32  93 NE23G30   29.89F VSB 3/4 WCI  22
SAWYER-GWINN   CLOUDY    28  28 100 NE12      29.97F FOG     WCI  18
$$
MIZ001>003-009>011-084-221400-
WESTERN UPPER MICHIGAN

CITY           SKY/WX    TMP DP  RH WIND       PRES   REMARKS
IRON MOUNTAIN  CLOUDY    32  29  88 NE10G17   29.91F WCI  24
HOUGHTON       CLOUDY    26  22  84 E14       30.02F WCI  14
COPPER HARBOR    N/A     27  23  85 SE9G18    30.08F WCI  18
IRONWOOD       FLURRIES  27  26  96 NE12      29.95F WCI  17
$$

ABBREVIATIONS USED IN REMARKS
   TC - TEMPERATURE IN CELSIUS
  WCI - WIND CHILL INDEX
   HX - HEAT INDEX
  VSB - VISIBILITY




USA.gov is the U.S. government's official web portal to all federal, state and local government web resources and services.